Preview of NWS' New Version of Forecast
This preview is not operational and should not be used for support decisions.

Regional Weather Roundup (RWR)

Issued by National Weather Service (NWS)

                            
000
ASUS43 KLSX 200807
RWRMO 

WEATHER SUMMARY FOR MISSOURI
NATIONAL WEATHER SERVICE SPRINGFIELD MO
300 AM CDT THU JUN 20 2019

NOTE: "FAIR" INDICATES FEW OR NO CLOUDS BELOW 12,000 FEET WITH NO
       SIGNIFICANT WEATHER AND/OR OBSTRUCTIONS TO VISIBILITY.
       CURRENT SKY AND/OR WEATHER CONDITIONS ARE NOT AVAILABLE FOR
       CHILLICOTHE AND FARMINGTON.

MOZ001>031-035>038-043-044-053-054-200900-
...NORTHERN AND WESTERN MISSOURI...
  
CITY           SKY/WX    TMP DP  RH WIND       PRES   REMARKS
KANSAS CTY INT CLEAR     62  61  96 S6        29.73S                  
KANSAS C DTWN  CLEAR     68  61  78 SE3       29.73R                  
LEE'S SUMMIT   CLEAR     63  60  90 CALM      29.74R                  
ST JOSEPH      CLEAR     64  62  93 SE3       29.72S                  
CHILLICOTHE      N/A     64  63  96 CALM      29.73R                  
KIRKSVILLE     CLOUDY    64  63  96 W5        29.72R FOG              
     
$$
MOZ066>068-077>081-088>096-101>105-200900-
...SOUTHWEST MISSOURI...
  
CITY           SKY/WX    TMP DP  RH WIND       PRES   REMARKS
SPRINGFIELD    CLEAR     66  63  90 NW6       29.73F                  
JOPLIN         CLEAR     65  64  97 CALM      29.74F                  
BRANSON        CLEAR     64  64 100 CALM      29.76R                  
               
$$
MOZ032>034-039>042-045>050-055>058-069>072-200900-
...CENTRAL MISSOURI...  
  
CITY           SKY/WX    TMP DP  RH WIND       PRES   REMARKS
COLUMBIA       CLOUDY    66  63  90 NW5       29.71R                  
ROLLA          CLOUDY    65  63  93 NW10      29.72R                  
SEDALIA        CLEAR     61  61 100 W3        29.74R                  
WHITEMAN AFB   PTCLDY    62  62 100 SW3       29.69R                  
WARRENSBURG    PTCLDY    61  61 100 CALM      29.73R                  
OSAGE BEACH    CLEAR     64  64 100 CALM      29.73S                  
               
$$
MOZ051-052-059>065-200900-
...EAST CENTRAL MISSOURI...
  
CITY           SKY/WX    TMP DP  RH WIND       PRES   REMARKS
ST LOUIS INTL  CLOUDY    68  61  78 NW9       29.64R                  
SPIRIT OF STL  CLOUDY    68  64  87 W8        29.64R                  
ST CHARLES       N/A    N/A N/A N/A MISG      29.63R                  
                   
$$
MOZ072>076-082>087-097>100-106>115-200900-
...SOUTH CENTRAL AND SOUTHEAST MISSOURI...
  
CITY           SKY/WX    TMP DP  RH WIND       PRES   REMARKS
CAPE GIRARDEAU FAIR      70  67  90 SW5       29.64R                  
FARMINGTON     PTCLDY    67  66  97 W3        29.68R                  
POPLAR BLUFF   FAIR      71  69  93 W5        29.67R                  
WEST PLAINS    CLEAR     68  66  93 W6        29.74S                  
                                       
$$